Beckley, WV

4:17 AM EDT on May 25, 2017 (GMT -0400)
Raleigh County Memorial

Weather History for KBKW - November, 2013

Change the Weather History Date:

Friday, November 1, 2013

  Actual Average Record
Temperature  
Mean Temperature 56 °F 49 °F  
Max Temperature 67 °F 59 °F 78 °F (1915)
Min Temperature 45 °F 39 °F 14 °F (1913)
Degree Days  
Heating Degree Days 9 16  
Month to date heating degree days 9 16  
Since 1 July heating degree days 442 522  
Cooling Degree Days 0 0  
Month to date cooling degree days 0 0  
Year to date cooling degree days 615 556  
Growing Degree Days 8 (Base 50)    
Moisture  
Dew Point 50 °F    
Average Humidity 68    
Maximum Humidity 93    
Minimum Humidity 43    
Precipitation  
Precipitation 0.62 in 0.10 in 1.53 in (1951)
Month to date precipitation 0.62 0.10  
Year to date precipitation 33.82 35.34  
Snow  
Snow 0.00 in - - ()
Month to date snowfall 0.0  
Since 1 September snowfall T  
Snow Depth 0.00 in    
Sea Level Pressure  
Sea Level Pressure 29.69 in    
Wind  
Wind Speed 9 mph (WSW)    
Max Wind Speed 24 mph    
Max Gust Speed 35 mph    
Visibility 8 miles    
Events Rain    
T = Trace of Precipitation, MM = Missing Value Source: NWS Daily Summary

Daily Weather History Graph

Daily Weather History Graph

Search for Another Location

Airport or City:

Trip Planner

Search our weather history database for the weather conditions in past years. The results will help you decide how hot, cold, wet, or windy it might be!

Date:

Astronomy

Nov. 01, 2013 Rise Set
Actual Time 7:50 AM EDT 6:25 PM EDT
Civil Twilight 7:22 AM EDT 6:52 PM EDT
Nautical Twilight 6:51 AM EDT 7:23 PM EDT
Astronomical Twilight 6:21 AM EDT 7:54 PM EDT
Moon 5:42 AM EDT (11/1) 5:16 PM EDT (11/1)
Length of Visible Light 11h 29m
Length of Day
10h 35m
Waning Crescent, 4% of the Moon is Illuminated
Nov 1
Waning Crescent
Nov 3
New
Nov 10
First Quarter
Nov 17
Full
Nov 25
Last Quarter

Hourly Weather History & Observations

Time (EDT) Temp. Dew Point Humidity Pressure Visibility Wind Dir Wind Speed Gust Speed Precip Events Conditions
12:51 AM 64.9 °F 53.1 °F 65% 29.60 in 10.0 mi South 11.5 mph 24.2 mph N/A   Overcast
1:51 AM 66.0 °F 53.1 °F 63% 29.59 in 10.0 mi South 11.5 mph - N/A   Mostly Cloudy
2:51 AM 66.0 °F 55.0 °F 68% 29.59 in 10.0 mi SW 23.0 mph 32.2 mph 0.00 in Rain Light Rain
3:51 AM 62.1 °F 57.0 °F 84% 29.59 in 10.0 mi SSW 10.4 mph - 0.03 in Rain Light Rain
4:49 AM 60.8 °F 57.2 °F 88% 29.65 in 3.0 mi SW 10.4 mph - 0.09 in Rain Rain
4:51 AM 61.0 °F 57.0 °F 87% 29.59 in 3.0 mi SW 9.2 mph - 0.10 in Rain Rain
5:02 AM 60.8 °F 57.2 °F 88% 29.66 in 2.5 mi WSW 6.9 mph - 0.03 in Rain Rain
5:10 AM 60.8 °F 57.2 °F 88% 29.66 in 3.0 mi SW 6.9 mph - 0.06 in Rain Rain
5:20 AM 60.8 °F 57.2 °F 88% 29.66 in 2.5 mi West 6.9 mph - 0.11 in Rain Heavy Rain
5:22 AM 60.8 °F 57.2 °F 88% 29.66 in 2.0 mi West 8.1 mph - 0.12 in Rain Heavy Rain
5:33 AM 57.2 °F 55.4 °F 94% 29.69 in 1.0 mi West 24.2 mph 34.5 mph 0.27 in Rain Heavy Rain
5:41 AM 57.2 °F 55.4 °F 94% 29.69 in 2.0 mi West 20.7 mph 34.5 mph 0.37 in Rain Heavy Rain
5:49 AM 57.2 °F 55.4 °F 94% 29.70 in 5.0 mi West 11.5 mph 25.3 mph 0.39 in Rain Rain
5:51 AM 57.9 °F 55.0 °F 90% 29.65 in 6.0 mi West 9.2 mph 21.9 mph 0.39 in Rain Rain
5:57 AM 57.2 °F 55.4 °F 94% 29.71 in 6.0 mi West 10.4 mph 23.0 mph 0.01 in Rain Light Rain
6:51 AM 55.9 °F 53.1 °F 90% 29.70 in 10.0 mi WSW 9.2 mph - 0.08 in Rain Light Rain
7:39 AM 55.4 °F 51.8 °F 88% 29.76 in 10.0 mi WSW 5.8 mph - 0.00 in Rain Light Rain
7:51 AM 55.9 °F 52.0 °F 87% 29.73 in 10.0 mi WSW 9.2 mph - 0.01 in Rain Light Rain
8:51 AM 55.9 °F 52.0 °F 87% 29.74 in 10.0 mi SW 8.1 mph - 0.01 in   Overcast
9:51 AM 55.9 °F 51.1 °F 84% 29.75 in 10.0 mi WSW 10.4 mph 19.6 mph N/A   Mostly Cloudy
10:14 AM 55.4 °F 51.8 °F 88% 29.79 in 10.0 mi WSW 8.1 mph - 0.00 in Rain Light Rain
10:51 AM 57.9 °F 51.1 °F 78% 29.73 in 10.0 mi West 9.2 mph - 0.00 in   Overcast
11:51 AM 59.0 °F 48.9 °F 69% 29.73 in 10.0 mi West 11.5 mph 17.3 mph N/A   Mostly Cloudy
12:12 PM 60.8 °F 48.2 °F 63% 29.79 in 10.0 mi West 10.4 mph 18.4 mph N/A   Mostly Cloudy
12:24 PM 60.8 °F 48.2 °F 63% 29.79 in 10.0 mi West 8.1 mph 16.1 mph N/A   Mostly Cloudy
12:51 PM 60.1 °F 48.0 °F 64% 29.71 in 10.0 mi WSW 4.6 mph - N/A   Scattered Clouds
1:51 PM 61.0 °F 44.1 °F 54% 29.67 in 10.0 mi West 15.0 mph 20.7 mph N/A   Clear
2:51 PM 64.0 °F 43.0 °F 46% 29.65 in 10.0 mi WSW 13.8 mph 19.6 mph N/A   Clear
3:51 PM 64.9 °F 41.0 °F 42% 29.64 in 10.0 mi WSW 13.8 mph 18.4 mph N/A   Clear
4:51 PM 64.0 °F 41.0 °F 43% 29.65 in 10.0 mi West 10.4 mph - N/A   Clear
5:51 PM 62.1 °F 41.0 °F 46% 29.65 in 10.0 mi WNW 8.1 mph - N/A   Clear
6:51 PM 59.0 °F 39.9 °F 49% 29.68 in 10.0 mi WNW 5.8 mph - N/A   Clear
7:51 PM 57.0 °F 42.1 °F 57% 29.72 in 10.0 mi Calm Calm - N/A   Overcast
8:51 PM 57.0 °F 41.0 °F 55% 29.73 in 10.0 mi WNW 3.5 mph - N/A   Overcast
9:51 PM 54.0 °F 42.1 °F 64% 29.74 in 10.0 mi Calm Calm - N/A   Overcast
10:51 PM 53.1 °F 41.0 °F 64% 29.75 in 10.0 mi NNW 3.5 mph - N/A   Mostly Cloudy
11:51 PM 46.9 °F 41.0 °F 80% 29.77 in 10.0 mi Calm Calm - N/A   Mostly Cloudy